Hourly Weather Allaman

Today, 25 February, Thursday

Time Temperature Precipitation Wind Pressure Humidity
00:00 +10°C° 0 mm 1 mps 728 mmHg 68%
01:00 +9°C° 0 mm 1 mps 728 mmHg 69%
02:00 +9°C° 0 mm 1 mps 728 mmHg 69%
03:00 +9°C° 0 mm 1 mps 728 mmHg 70%
04:00 +8°C° 0 mm 1 mps 728 mmHg 70%
05:00 +8°C° 0 mm 1 mps 728 mmHg 70%
06:00 +8°C° 0 mm 1 mps 727 mmHg 71%
07:00 +10°C° 0 mm 1 mps 727 mmHg 67%
08:00 +11°C° 0 mm 1 mps 727 mmHg 63%
09:00 +12°C° 0 mm 0 mps 727 mmHg 59%
10:00 +15°C° 0 mm 1 mps 727 mmHg 54%
11:00 +16°C° 0 mm 1 mps 727 mmHg 50%
12:00 +19°C° 0 mm 1 mps 727 mmHg 46%
13:00 +18°C° 0 mm 1 mps 727 mmHg 48%
14:00 +18°C° 0 mm 1 mps 727 mmHg 50%
15:00 +18°C° 0 mm 1 mps 726 mmHg 53%
16:00 +15°C° 0 mm 1 mps 727 mmHg 60%
17:00 +13°C° 0 mm 1 mps 727 mmHg 67%
18:00 +11°C° 0 mm 0 mps 727 mmHg 74%
19:00 +11°C° 0 mm 1 mps 727 mmHg 74%
20:00 +11°C° 0 mm 1 mps 727 mmHg 75%
21:00 +10°C° 0 mm 1 mps 728 mmHg 75%
22:00 +10°C° 0 mm 1 mps 728 mmHg 74%
23:00 +10°C° 0 mm 1 mps 728 mmHg 73%

Tomorrow, 26 February, Friday

Time Temperature Precipitation Wind Pressure Humidity
00:00 +9°C° 0 mm 1 mps 728 mmHg 71%
01:00 +9°C° 0 mm 1 mps 728 mmHg 71%
02:00 +9°C° 0 mm 1 mps 727 mmHg 71%
03:00 +9°C° 0 mm 1 mps 727 mmHg 70%
04:00 +8°C° 0 mm 1 mps 727 mmHg 70%
05:00 +8°C° 0 mm 1 mps 727 mmHg 71%
06:00 +7°C° 0 mm 0 mps 727 mmHg 71%
07:00 +8°C° 0 mm 0 mps 727 mmHg 68%
08:00 +10°C° 0 mm 0 mps 727 mmHg 64%
09:00 +11°C° 0 mm 0 mps 727 mmHg 61%
10:00 +13°C° 0 mm 0 mps 727 mmHg 58%
11:00 +14°C° 0 mm 0 mps 727 mmHg 55%
12:00 +16°C° 0 mm 1 mps 726 mmHg 53%
13:00 +16°C° 0 mm 1 mps 726 mmHg 55%
14:00 +15°C° 0 mm 1 mps 726 mmHg 57%
15:00 +15°C° 0 mm 1 mps 725 mmHg 59%
16:00 +14°C° 0 mm 1 mps 725 mmHg 67%
17:00 +12°C° 0 mm 1 mps 725 mmHg 74%
18:00 +11°C° 0 mm 1 mps 726 mmHg 82%
19:00 +10°C° 0 mm 1 mps 726 mmHg 84%
20:00 +10°C° 0 mm 1 mps 726 mmHg 86%
21:00 +10°C° 0 mm 1 mps 726 mmHg 88%
22:00 +9°C° 0 mm 1 mps 726 mmHg 89%
23:00 +9°C° 0 mm 1 mps 726 mmHg 90%

Day after tomorrow, 27 February, Saturday

Time Temperature Precipitation Wind Pressure Humidity
00:00 +9°C° 0 mm 1 mps 726 mmHg 91%
01:00 +9°C° 0.1 mm 1 mps 725 mmHg 92%
02:00 +9°C° 0.1 mm 1 mps 725 mmHg 92%
03:00 +8°C° 0.1 mm 1 mps 725 mmHg 92%
04:00 +8°C° 0 mm 2 mps 725 mmHg 93%
05:00 +8°C° 0 mm 2 mps 725 mmHg 93%
06:00 +8°C° 0 mm 3 mps 725 mmHg 93%
07:00 +8°C° 0.1 mm 3 mps 725 mmHg 91%
08:00 +7°C° 0.1 mm 4 mps 725 mmHg 89%
09:00 +7°C° 0.1 mm 4 mps 725 mmHg 88%
10:00 +8°C° 0 mm 4 mps 725 mmHg 86%
11:00 +8°C° 0 mm 5 mps 725 mmHg 83%
12:00 +9°C° 0 mm 5 mps 725 mmHg 81%
13:00 +9°C° 0 mm 5 mps 725 mmHg 81%
14:00 +9°C° 0 mm 5 mps 724 mmHg 81%
15:00 +8°C° 0 mm 5 mps 724 mmHg 81%
16:00 +8°C° 0 mm 5 mps 724 mmHg 83%
17:00 +7°C° 0 mm 5 mps 724 mmHg 85%
18:00 +6°C° 0 mm 5 mps 724 mmHg 87%
19:00 +6°C° 0 mm 5 mps 725 mmHg 87%
20:00 +5°C° 0 mm 4 mps 725 mmHg 86%
21:00 +5°C° 0 mm 4 mps 725 mmHg 86%
22:00 +4°C° 0 mm 4 mps 725 mmHg 87%
23:00 +4°C° 0 mm 3 mps 725 mmHg 87%

28 February, Sunday

Time Temperature Precipitation Wind Pressure Humidity
00:00 +4°C° 0 mm 3 mps 726 mmHg 88%
01:00 +4°C° 0 mm 2 mps 725 mmHg 89%
02:00 +4°C° 0 mm 2 mps 725 mmHg 89%
03:00 +4°C° 0 mm 2 mps 725 mmHg 90%
04:00 +4°C° 0 mm 2 mps 725 mmHg 90%
05:00 +4°C° 0 mm 2 mps 725 mmHg 91%
06:00 +5°C° 0 mm 1 mps 725 mmHg 92%
07:00 +6°C° 0 mm 1 mps 725 mmHg 87%
08:00 +7°C° 0 mm 1 mps 725 mmHg 83%
09:00 +8°C° 0 mm 1 mps 726 mmHg 79%
10:00 +10°C° 0 mm 1 mps 726 mmHg 74%
11:00 +11°C° 0 mm 1 mps 726 mmHg 69%
12:00 +13°C° 0 mm 2 mps 726 mmHg 65%
13:00 +13°C° 0 mm 2 mps 725 mmHg 65%
14:00 +13°C° 0 mm 2 mps 725 mmHg 65%
15:00 +13°C° 0 mm 2 mps 725 mmHg 64%
16:00 +10°C° 0 mm 2 mps 725 mmHg 72%
17:00 +8°C° 0 mm 2 mps 725 mmHg 80%
18:00 +7°C° 0 mm 2 mps 725 mmHg 87%
19:00 +6°C° 0 mm 2 mps 725 mmHg 88%
20:00 +6°C° 0 mm 2 mps 726 mmHg 88%
21:00 +6°C° 0 mm 2 mps 726 mmHg 89%
22:00 +5°C° 0 mm 2 mps 726 mmHg 88%
23:00 +6°C° 0 mm 1 mps 726 mmHg 88%

1 March, Monday

Time Temperature Precipitation Wind Pressure Humidity
00:00 +6°C° 0 mm 1 mps 726 mmHg 88%
01:00 +6°C° 0 mm 1 mps 725 mmHg 87%
02:00 +6°C° 0 mm 1 mps 725 mmHg 86%
03:00 +5°C° 0 mm 1 mps 725 mmHg 86%
04:00 +5°C° 0 mm 1 mps 725 mmHg 85%
05:00 +5°C° 0 mm 1 mps 725 mmHg 85%
06:00 +5°C° 0 mm 1 mps 725 mmHg 84%
07:00 +7°C° 0 mm 1 mps 725 mmHg 79%
08:00 +9°C° 0 mm 1 mps 726 mmHg 75%
09:00 +10°C° 0 mm 1 mps 726 mmHg 70%
10:00 +12°C° 0 mm 1 mps 726 mmHg 66%
11:00 +13°C° 0 mm 1 mps 726 mmHg 62%
12:00 +14°C° 0 mm 1 mps 726 mmHg 58%
13:00 +14°C° 0 mm 1 mps 726 mmHg 58%
14:00 +14°C° 0 mm 1 mps 725 mmHg 59%
15:00 +14°C° 0 mm 1 mps 725 mmHg 59%
16:00 +13°C° 0 mm 1 mps 725 mmHg 67%
17:00 +11°C° 0 mm 1 mps 725 mmHg 75%
18:00 +9°C° 0 mm 1 mps 725 mmHg 83%
19:00 +9°C° 0 mm 1 mps 726 mmHg 83%
20:00 +8°C° 0 mm 1 mps 726 mmHg 83%
21:00 +8°C° 0 mm 1 mps 727 mmHg 83%
22:00 +8°C° 0 mm 1 mps 727 mmHg 81%
23:00 +7°C° 0 mm 1 mps 727 mmHg 80%

2 March, Tuesday

Time Temperature Precipitation Wind Pressure Humidity
00:00 +7°C° 0 mm 1 mps 727 mmHg 78%
01:00 +7°C° 0 mm 1 mps 727 mmHg 78%
02:00 +6°C° 0 mm 0 mps 727 mmHg 77%
03:00 +6°C° 0 mm 0 mps 727 mmHg 76%
04:00 +5°C° 0 mm 0 mps 727 mmHg 76%
05:00 +5°C° 0 mm 0 mps 727 mmHg 76%
06:00 +5°C° 0 mm 0 mps 727 mmHg 76%
07:00 +7°C° 0 mm 0 mps 727 mmHg 71%
08:00 +9°C° 0 mm 0 mps 727 mmHg 67%
09:00 +11°C° 0 mm 0 mps 728 mmHg 62%
10:00 +12°C° 0 mm 0 mps 727 mmHg 59%
11:00 +13°C° 0 mm 0 mps 727 mmHg 56%
12:00 +16°C° 0 mm 1 mps 727 mmHg 54%
13:00 +16°C° 0 mm 1 mps 727 mmHg 55%
14:00 +16°C° 0 mm 1 mps 727 mmHg 56%
15:00 +15°C° 0 mm 1 mps 727 mmHg 57%
16:00 +13°C° 0 mm 0 mps 727 mmHg 65%
17:00 +11°C° 0 mm 0 mps 727 mmHg 73%
18:00 +9°C° 0 mm 0 mps 727 mmHg 82%
19:00 +9°C° 0 mm 0 mps 727 mmHg 82%
20:00 +8°C° 0 mm 0 mps 728 mmHg 83%
21:00 +8°C° 0 mm 0 mps 728 mmHg 84%
22:00 +8°C° 0 mm 0 mps 728 mmHg 84%
23:00 +7°C° 0 mm 0 mps 728 mmHg 84%
Show more